DW1512 Weather Reports


Display with metric or nautical units.
time (UTC)temp
F
wind
direction
speed
MPH
gust
MPH
rain 1hr
in
rain 24hr
in
rain mn
in
humidity
%
barometer
mb
20210622080205 80 287 1.0 2.0 0.00 0.00 0.00 59 1005.2
20210622075706 80 276 1.0 2.0 0.00 0.00 0.00 59 1005.2
20210622075205 78 244 1.0 2.0 0.00 0.00 0.00 63 1005.2
20210622074705 79 264 2.0 2.0 0.00 0.00 0.00 61 1005.5
20210622074205 79 249 1.0 2.0 0.00 0.00 0.00 61 1005.4
20210622073705 79 212 1.0 2.0 0.00 0.00 0.00 60 1005.2
20210622073206 79 320 0.0 1.0 0.00 0.00 0.00 62 1005.2
20210622072705 80 315 1.0 1.0 0.00 0.00 0.00 61 1005.2
20210622072205 80 322 1.0 1.0 0.00 0.00 0.00 61 1005.2
20210622071705 80 49 0.0 1.0 0.00 0.00 0.00 59 1005.2
20210622071205 78 278 1.0 1.0 0.00 0.00 0.00 62 1004.8
20210622070705 78 212 0.0 1.0 0.00 0.00 0.00 61 1005.2
20210622070206 78 212 1.0 1.0 0.00 0.00 0.00 61 1005.2
20210622065706 78 278 1.0 3.0 0.00 0.00 0.00 63 1005.2
20210622065205 77 219 1.0 3.0 0.00 0.00 0.00 64 1004.8
20210622064706 78 274 2.0 3.0 0.00 0.00 0.00 64 1005.2
20210622064205 78 274 2.0 3.0 0.00 0.00 0.00 64 1005.2
20210622063706 77 278 0.0 1.0 0.00 0.00 0.00 62 1005.2
20210622063206 77 257 1.0 1.0 0.00 0.00 0.00 65 1004.8
20210622062706 76 264 0.0 2.0 0.00 0.00 0.00 67 1005.2
20210622062206 76 264 1.0 2.0 0.00 0.00 0.00 67 1005.2
20210622061706 75 275 1.0 2.0 0.00 0.00 0.00 66 1004.8
20210622061206 75 247 1.0 2.0 0.00 0.00 0.00 69 1004.5
20210622060705 74 230 1.0 1.0 0.00 0.00 0.00 66 1004.5
20210622060205 74 230 1.0 1.0 0.00 0.00 0.00 66 1004.5
20210622055705 74 232 1.0 1.0 0.00 0.00 0.00 66 1004.8
20210622055206 74 216 0.0 1.0 0.00 0.00 0.00 70 1004.5
20210622054706 74 185 1.0 2.0 0.00 0.00 0.00 68 1004.5
20210622054205 74 185 1.0 2.0 0.00 0.00 0.00 68 1004.5
20210622053705 74 222 2.0 2.0 0.00 0.00 0.00 68 1004.5
20210622053206 74 225 1.0 2.0 0.00 0.00 0.00 70 1004.5
20210622052705 73 218 0.0 1.0 0.00 0.00 0.00 69 1004.5
20210622052205 73 218 0.0 1.0 0.00 0.00 0.00 69 1004.5
20210622051705 73 195 0.0 1.0 0.00 0.00 0.00 71 1004.8
20210622051206 73 104 0.0 0.0 0.00 0.00 0.00 72 1004.5
20210622050705 71 104 0.0 0.0 0.00 0.00 0.00 74 1004.5
20210622050205 71 104 0.0 0.0 0.00 0.00 0.00 74 1004.5
20210622045706 70 103 0.0 1.0 0.00 0.00 0.00 76 1004.5
20210622045206 68 104 0.0 1.0 0.00 0.00 0.00 80 1004.5
20210622044705 69 104 1.0 1.0 0.00 0.00 0.00 80 1004.5
20210622044206 69 104 1.0 1.0 0.00 0.00 0.00 80 1004.5
20210622043705 69 102 1.0 1.0 0.00 0.00 0.00 79 1004.5
20210622043205 68 103 0.0 0.0 0.00 0.00 0.00 81 1004.5
20210622042705 68 101 0.0 0.0 0.00 0.00 0.00 82 1004.5
20210622042205 68 102 0.0 0.0 0.00 0.00 0.00 82 1004.5
20210622041708 68 136 0.0 0.0 0.00 0.00 0.00 80 1004.5
20210622041205 66 137 0.0 0.0 0.00 0.00 0.00 80 1004.5
20210622040705 63 137 0.0 0.0 0.00 0.00 0.00 86 1004.5
20210622040205 63 137 0.0 0.0 0.00 0.00 0.00 86 1004.5
20210622035705 61 137 0.0 0.0 0.00 0.00 0.00 91 1004.5
20210622035205 60 137 0.0 0.0 0.00 0.00 0.00 93 1004.1
20210622034705 60 137 0.0 0.0 0.00 0.00 0.00 93 1004.1
20210622034205 60 137 0.0 0.0 0.00 0.00 0.00 93 1004.1
20210622033705 59 137 0.0 0.0 0.00 0.00 0.00 93 1004.1
20210622033205 59 137 0.0 0.0 0.00 0.00 0.00 93 1004.1
20210622032705 59 137 0.0 0.0 0.00 0.00 0.00 94 1003.8
20210622032205 59 137 0.0 0.0 0.00 0.00 0.00 94 1003.8
20210622031706 59 137 0.0 0.0 0.00 0.00 0.00 94 1003.8
20210622031205 59 137 0.0 0.0 0.00 0.00 0.00 94 1003.8
20210622030706 59 137 0.0 0.0 0.00 0.00 0.00 94 1003.5
20210622030205 59 137 0.0 0.0 0.00 0.00 0.00 94 1003.5
20210622025705 59 137 0.0 0.0 0.00 0.00 0.00 94 1003.5
20210622025205 59 164 0.0 0.0 0.00 0.00 0.00 94 1003.5
20210622024705 59 87 0.0 0.0 0.00 0.00 0.00 94 1003.5
20210622024205 59 87 0.0 0.0 0.00 0.00 0.00 94 1003.5
20210622023706 59 87 0.0 0.0 0.00 0.00 0.00 94 1003.1
20210622023205 59 87 0.0 0.0 0.00 0.00 0.00 94 1003.5
20210622022705 59 87 0.0 0.0 0.00 0.00 0.00 93 1003.5
20210622022205 59 87 0.0 0.0 0.00 0.00 0.00 93 1003.5
20210622021705 60 87 0.0 0.0 0.00 0.00 0.00 94 1003.5
20210622021205 60 87 0.0 0.0 0.00 0.00 0.00 93 1003.5
20210622020705 60 86 0.0 0.0 0.00 0.00 0.00 93 1003.5
20210622020205 60 86 0.0 0.0 0.00 0.00 0.00 93 1003.5
20210622015705 60 86 0.0 0.0 0.00 0.00 0.00 93 1003.1
20210622015205 60 86 0.0 0.0 0.00 0.00 0.00 93 1003.5
20210622014705 60 86 0.0 0.0 0.00 0.00 0.00 93 1003.8
20210622014205 60 86 0.0 0.0 0.00 0.00 0.00 93 1003.8
20210622013706 60 86 0.0 0.0 0.00 0.00 0.00 93 1003.8
20210622013205 61 86 0.0 0.0 0.00 0.00 0.00 93 1003.8
20210622012706 61 86 0.0 0.0 0.00 0.00 0.00 93 1003.8
20210622012205 61 86 0.0 0.0 0.00 0.00 0.00 93 1003.8
20210622011705 61 86 0.0 1.0 0.00 0.00 0.00 93 1003.8
20210622011206 61 77 0.0 1.0 0.00 0.00 0.00 93 1003.8
20210622010706 62 49 1.0 1.0 0.00 0.00 0.00 92 1003.8
20210622010205 62 49 1.0 1.0 0.00 0.00 0.00 92 1003.8
20210622005705 61 154 0.0 0.0 0.00 0.00 0.00 92 1003.8
20210622005205 61 155 0.0 0.0 0.00 0.00 0.00 92 1003.8
20210622004705 62 155 0.0 0.0 0.00 0.00 0.00 92 1003.8
20210622004205 62 155 0.0 1.0 0.00 0.00 0.00 92 1003.8
20210622003705 62 148 0.0 3.0 0.00 0.00 0.00 92 1003.8
20210622003205 62 50 1.0 3.0 0.00 0.00 0.00 91 1003.8
20210622002705 62 55 2.0 3.0 0.00 0.00 0.00 92 1003.8
20210622002205 62 55 2.0 3.0 0.00 0.00 0.00 92 1003.8
20210622001705 61 333 0.0 0.0 0.00 0.00 0.00 92 1003.8
20210622001205 62 332 0.0 0.0 0.00 0.00 0.00 92 1003.8
20210622000705 62 332 0.0 0.0 0.00 0.00 0.00 92 1003.8
20210622000206 62 332 0.0 1.0 0.00 0.00 0.00 92 1003.8
20210621235705 63 333 0.0 1.0 0.00 0.00 0.00 91 1003.8
20210621235206 63 334 0.0 1.0 0.00 0.00 0.00 91 1003.8
20210621234704 63 333 0.0 0.0 0.00 0.00 0.00 91 1004.1
20210621234205 63 333 0.0 0.0 0.00 0.00 0.00 91 1004.1
20210621233705 63 333 0.0 0.0 0.00 0.00 0.00 91 1003.8
20210621233205 64 333 0.0 0.0 0.00 0.00 0.00 90 1003.8
20210621232705 64 332 0.0 0.0 0.00 0.00 0.00 90 1004.1
20210621232205 64 332 0.0 0.0 0.00 0.00 0.00 90 1004.1
20210621231705 64 4 0.0 1.0 0.00 0.00 0.00 88 1004.1
20210621231205 65 16 0.0 1.0 0.00 0.00 0.00 86 1004.5
20210621230705 65 16 0.0 1.0 0.00 0.00 0.00 85 1004.5
20210621230206 65 16 0.0 1.0 0.00 0.00 0.00 85 1004.5
20210621225705 65 12 1.0 1.0 0.00 0.00 0.00 86 1004.1
20210621225205 65 13 0.0 1.0 0.00 0.00 0.00 87 1004.5
20210621224705 65 1 0.0 0.0 0.00 0.00 0.00 87 1004.5
20210621224205 65 1 0.0 1.0 0.00 0.00 0.00 87 1004.5
20210621223705 65 359 0.0 1.0 0.00 0.00 0.00 86 1004.5
20210621223205 66 9 0.0 1.0 0.00 0.00 0.00 85 1004.5
20210621222705 67 47 0.0 1.0 0.00 0.00 0.00 83 1004.5
20210621222205 67 47 0.0 1.0 0.00 0.00 0.00 83 1004.5
20210621221705 67 79 0.0 1.0 0.00 0.00 0.00 84 1004.5
20210621221206 67 83 0.0 2.0 0.00 0.00 0.00 85 1004.5
20210621220705 67 82 0.0 2.0 0.00 0.00 0.00 84 1004.5
20210621220205 67 82 1.0 2.0 0.00 0.00 0.00 84 1004.5
20210621215705 67 82 1.0 2.0 0.00 0.00 0.00 83 1004.5
20210621215205 67 102 0.0 1.0 0.00 0.00 0.00 84 1004.8
20210621214705 66 76 1.0 1.0 0.00 0.00 0.00 87 1004.8
20210621214205 66 77 1.0 1.0 0.00 0.00 0.00 87 1004.8
20210621213705 66 108 0.0 1.0 0.00 0.00 0.00 87 1005.2
20210621213205 66 108 1.0 1.0 0.00 0.00 0.00 86 1004.8
20210621212705 66 109 0.0 1.0 0.00 0.00 0.00 86 1004.8
20210621212206 66 109 1.0 1.0 0.00 0.00 0.00 86 1004.8
20210621211705 66 102 1.0 1.0 0.00 0.00 0.00 85 1004.8
20210621211205 67 88 0.0 1.0 0.00 0.00 0.00 84 1004.8
20210621210705 67 80 0.0 1.0 0.00 0.00 0.00 84 1004.8
20210621210205 67 81 0.0 1.0 0.00 0.00 0.00 84 1004.8
20210621205705 67 84 0.0 1.0 0.00 0.00 0.00 84 1004.8
20210621205205 67 92 1.0 1.0 0.00 0.00 0.00 85 1004.8
20210621204705 67 94 0.0 1.0 0.00 0.00 0.00 85 1004.8
20210621204205 67 96 1.0 1.0 0.00 0.00 0.00 85 1004.8
20210621203705 67 102 1.0 1.0 0.00 0.00 0.00 85 1004.8
20210621203205 67 92 1.0 2.0 0.00 0.00 0.00 84 1004.8
20210621202705 67 82 0.0 2.0 0.00 0.00 0.00 84 1004.8
20210621202205 67 86 1.0 2.0 0.00 0.00 0.00 84 1004.7
20210621201705 67 91 1.0 2.0 0.00 0.00 0.00 84 1004.5
20210621201205 67 68 0.0 2.0 0.00 0.00 0.00 83 1004.8
20210621200705 67 70 1.0 2.0 0.00 0.00 0.00 83 1004.5
20210621200206 67 74 1.0 2.0 0.00 0.00 0.00 83 1004.5
20210621195705 67 85 1.0 2.0 0.00 0.00 0.00 83 1004.5
20210621195205 67 83 1.0 2.0 0.00 0.00 0.00 82 1004.8
20210621194705 67 79 0.0 0.0 0.00 0.00 0.00 82 1004.5
20210621194205 67 63 0.0 0.0 0.00 0.00 0.00 82 1004.5
20210621193705 67 37 0.0 0.0 0.00 0.00 0.00 82 1004.5
20210621193205 67 37 0.0 0.0 0.00 0.00 0.00 83 1004.5
20210621192705 67 30 0.0 0.0 0.00 0.00 0.00 84 1004.1
20210621192205 67 26 0.0 0.0 0.00 0.00 0.00 84 1004.3
20210621191705 67 20 0.0 0.0 0.00 0.00 0.00 84 1004.5
20210621191204 67 20 0.0 0.0 0.00 0.00 0.00 84 1004.5
20210621190705 68 20 0.0 0.0 0.00 0.00 0.00 83 1004.1
20210621190205 68 19 0.0 0.0 0.00 0.00 0.00 83 1004.1
20210621185705 68 11 0.0 0.0 0.00 0.00 0.00 82 1004.1
20210621185205 68 345 0.0 0.0 0.00 0.00 0.00 83 1004.1
20210621184705 68 345 0.0 0.0 0.00 0.00 0.00 82 1004.1
20210621184205 68 345 0.0 0.0 0.00 0.00 0.00 82 1004.1
20210621183705 69 345 0.0 0.0 0.00 0.00 0.00 82 1004.1
20210621183205 69 345 0.0 0.0 0.00 0.00 0.00 82 1004.1
20210621182705 69 345 0.0 0.0 0.00 0.00 0.00 82 1004.1
20210621182205 69 345 0.0 0.0 0.00 0.00 0.00 82 1004.1
20210621181705 69 345 0.0 0.0 0.00 0.00 0.00 81 1003.8
20210621181204 70 345 0.0 0.0 0.00 0.00 0.00 80 1003.8
20210621180704 70 345 0.0 0.0 0.00 0.00 0.00 78 1003.8
20210621180205 70 345 0.0 0.0 0.00 0.00 0.00 78 1003.8
20210621175705 71 344 0.0 0.0 0.00 0.00 0.00 78 1003.8
20210621175205 71 344 0.0 0.0 0.00 0.00 0.00 76 1003.8
20210621174705 72 344 0.0 0.0 0.00 0.00 0.00 73 1003.8
20210621174205 72 344 0.0 0.0 0.00 0.00 0.00 73 1003.8
20210621173705 73 344 0.0 0.0 0.00 0.00 0.00 73 1003.5
20210621173205 74 344 0.0 0.0 0.00 0.00 0.00 73 1003.5
20210621172705 74 344 0.0 0.0 0.00 0.00 0.00 69 1003.5
20210621172205 74 344 0.0 0.0 0.00 0.00 0.00 69 1003.5
20210621171705 75 344 0.0 0.0 0.00 0.00 0.00 68 1003.5
20210621171205 76 344 0.0 0.0 0.00 0.00 0.00 68 1003.5
20210621170705 76 344 0.0 0.0 0.00 0.00 0.00 65 1003.1
20210621170205 76 344 0.0 1.0 0.00 0.00 0.00 65 1003.2
20210621165705 76 344 0.0 1.0 0.00 0.00 0.00 63 1003.5
20210621165205 77 344 0.0 1.0 0.00 0.00 0.00 60 1003.5
20210621164705 77 348 0.0 1.0 0.00 0.00 0.00 60 1003.5
20210621164205 78 348 0.0 1.0 0.00 0.00 0.00 60 1003.5
20210621163706 78 348 0.0 1.0 0.00 0.00 0.00 59 1003.5
20210621163206 79 338 1.0 1.0 0.00 0.00 0.00 57 1003.1
20210621162706 80 358 0.0 1.0 0.00 0.00 0.00 57 1003.5
20210621162206 80 358 0.0 1.0 0.00 0.00 0.00 57 1003.5
20210621161706 80 348 0.0 1.0 0.00 0.00 0.00 55 1003.1
20210621161206 81 336 0.0 1.0 0.00 0.00 0.00 54 1003.5
20210621160706 81 338 0.0 1.0 0.00 0.00 0.00 55 1003.5
20210621160206 81 338 0.0 1.0 0.00 0.00 0.00 55 1003.5
20210621155706 82 326 0.0 1.0 0.00 0.00 0.00 52 1003.5
20210621155206 82 358 0.0 1.0 0.00 0.00 0.00 53 1003.5
20210621154705 82 335 0.0 1.0 0.00 0.00 0.00 53 1003.2
20210621154206 82 332 0.0 1.0 0.00 0.00 0.00 53 1003.1
20210621153706 82 329 1.0 1.0 0.00 0.00 0.00 54 1003.5
20210621153206 83 324 0.0 1.0 0.00 0.00 0.00 53 1003.5
20210621152706 83 327 1.0 2.0 0.00 0.00 0.00 53 1003.3
20210621152206 83 329 1.0 2.0 0.00 0.00 0.00 52 1003.1
20210621151706 83 341 1.0 2.0 0.00 0.00 0.00 52 1003.1
20210621151205 84 351 0.0 1.0 0.00 0.00 0.00 51 1003.1
20210621150705 84 331 1.0 1.0 0.00 0.00 0.00 51 1003.2
20210621150206 84 311 1.0 1.0 0.00 0.00 0.00 49 1003.5
20210621145706 84 317 1.0 1.0 0.00 0.00 0.00 50 1003.5
20210621145205 83 275 1.0 1.0 0.00 0.00 0.00 52 1003.5
20210621144706 83 275 1.0 1.0 0.00 0.00 0.00 52 1003.5
20210621144205 84 7 0.0 1.0 0.00 0.00 0.00 49 1003.5
20210621143706 84 314 1.0 1.0 0.00 0.00 0.00 50 1003.8
20210621143206 83 319 1.0 1.0 0.00 0.00 0.00 55 1003.5
20210621142705 82 319 1.0 1.0 0.00 0.00 0.00 55 1003.5
20210621142206 82 314 0.0 2.0 0.00 0.00 0.00 54 1003.8
20210621141706 84 273 1.0 2.0 0.00 0.00 0.00 54 1003.5
20210621141206 83 271 2.0 2.0 0.00 0.00 0.00 52 1003.5
20210621140706 83 271 2.0 3.0 0.00 0.00 0.00 51 1003.5
20210621140206 83 275 1.0 3.0 0.00 0.00 0.00 52 1003.5
20210621135706 83 243 2.0 3.0 0.00 0.00 0.00 53 1003.8
20210621135206 83 239 2.0 3.0 0.00 0.00 0.00 52 1003.7
20210621134705 84 230 2.0 2.0 0.00 0.00 0.00 51 1003.5
20210621134206 83 283 2.0 2.0 0.00 0.00 0.00 53 1003.5
20210621133705 82 288 2.0 2.0 0.00 0.00 0.00 56 1003.5
20210621133206 82 287 2.0 2.0 0.00 0.00 0.00 56 1003.5
20210621132706 82 246 2.0 2.0 0.00 0.00 0.00 51 1003.8
20210621132206 83 287 1.0 1.0 0.00 0.00 0.00 52 1003.8
20210621131706 81 307 0.0 2.0 0.00 0.00 0.00 55 1003.5
20210621131206 81 307 1.0 2.0 0.00 0.00 0.00 55 1003.5
20210621130706 82 277 1.0 2.0 0.00 0.00 0.00 55 1003.5
20210621130206 84 307 1.0 1.0 0.00 0.00 0.00 52 1003.8
20210621125705 84 342 1.0 1.0 0.00 0.00 0.00 50 1003.8
20210621125206 84 352 1.0 1.0 0.00 0.00 0.00 50 1003.8
20210621124706 83 347 0.0 1.0 0.00 0.00 0.00 53 1003.8
20210621124213 81 322 0.0 1.0 0.00 0.00 0.00 56 1003.8
20210621123706 81 322 1.0 1.0 0.00 0.00 0.00 56 1003.8
20210621123206 82 220 1.0 2.0 0.00 0.00 0.00 52 1003.8
20210621122706 83 354 0.0 2.0 0.00 0.00 0.00 55 1003.8
20210621122206 83 65 2.0 3.0 0.00 0.00 0.00 50 1003.8
20210621121706 83 65 2.0 3.0 0.00 0.00 0.00 50 1003.8
20210621121206 82 239 2.0 3.0 0.00 0.00 0.00 53 1003.8
20210621120706 82 222 2.0 3.0 0.00 0.00 0.00 52 1003.8
20210621120206 81 206 2.0 3.0 0.00 0.00 0.00 54 1003.8
20210621115706 81 201 2.0 3.0 0.00 0.00 0.00 55 1003.8
20210621115206 81 256 3.0 3.0 0.00 0.00 0.00 55 1003.8
20210621114705 82 86 2.0 2.0 0.00 0.00 0.00 51 1003.8
20210621114206 82 35 2.0 2.0 0.00 0.00 0.00 51 1003.8
20210621113705 82 287 2.0 2.0 0.00 0.00 0.00 50 1003.8
20210621113206 81 330 1.0 5.0 0.00 0.00 0.00 54 1004.1
20210621112706 81 262 0.0 5.0 0.00 0.00 0.00 54 1004.1
20210621112206 81 246 1.0 5.0 0.00 0.00 0.00 54 1004.1
20210621111707 80 212 3.0 5.0 0.00 0.00 0.00 55 1004.1
20210621111205 80 296 0.0 2.0 0.00 0.00 0.00 54 1004.1
20210621110706 80 216 1.0 2.0 0.00 0.00 0.00 53 1004.1
20210621110205 80 216 1.0 2.0 0.00 0.00 0.00 53 1004.1
20210621105705 79 273 1.0 1.0 0.00 0.00 0.00 55 1004.1
20210621105205 79 284 1.0 1.0 0.00 0.00 0.00 58 1004.5
20210621104706 79 256 0.0 2.0 0.00 0.00 0.00 57 1004.2
20210621104206 79 191 0.0 2.0 0.00 0.00 0.00 57 1004.1
20210621103705 81 299 2.0 2.0 0.00 0.00 0.00 54 1004.5
20210621103205 80 51 0.0 1.0 0.00 0.00 0.00 53 1004.5
20210621102705 79 312 1.0 1.0 0.00 0.00 0.00 56 1004.5
20210621102206 78 289 1.0 1.0 0.00 0.00 0.00 60 1004.5
20210621101705 78 288 0.0 2.0 0.00 0.00 0.00 58 1004.1
20210621101206 78 290 1.0 2.0 0.00 0.00 0.00 58 1004.5
20210621100706 79 351 1.0 2.0 0.00 0.00 0.00 56 1004.3
20210621100205 80 55 1.0 2.0 0.00 0.00 0.00 54 1004.1
20210621095706 80 329 2.0 2.0 0.00 0.00 0.00 53 1004.5
20210621095206 80 354 1.0 2.0 0.00 0.00 0.00 56 1004.5
20210621094705 80 352 1.0 2.0 0.00 0.00 0.00 56 1004.5
20210621094205 80 345 0.0 2.0 0.00 0.00 0.00 57 1004.5
20210621093705 79 354 1.0 2.0 0.00 0.00 0.00 55 1004.8
20210621093205 80 332 1.0 5.0 0.00 0.00 0.00 54 1004.5
20210621092705 80 332 2.0 5.0 0.00 0.00 0.00 54 1004.5
20210621092206 79 352 3.0 5.0 0.00 0.00 0.00 58 1004.5
20210621091705 78 63 0.0 1.0 0.00 0.00 0.00 53 1004.5
20210621091206 78 290 0.0 1.0 0.00 0.00 0.00 55 1004.8
20210621090706 78 290 0.0 1.0 0.00 0.00 0.00 55 1004.8
20210621090205 78 52 1.0 1.0 0.00 0.00 0.00 55 1004.8
20210621085705 77 2 0.0 1.0 0.00 0.00 0.00 54 1004.5
20210621085206 75 84 1.0 1.0 0.00 0.00 0.00 61 1004.8
20210621084705 75 84 1.0 1.0 0.00 0.00 0.00 61 1004.8
20210621084206 75 64 1.0 1.0 0.00 0.00 0.00 63 1004.5
20210621083705 75 26 0.0 0.0 0.00 0.00 0.00 63 1004.5
20210621083206 75 56 0.0 2.0 0.00 0.00 0.00 64 1004.5
20210621082705 75 56 1.0 2.0 0.00 0.00 0.00 64 1004.5
20210621082205 76 69 2.0 2.0 0.00 0.00 0.00 59 1004.5
20210621081706 77 62 1.0 2.0 0.00 0.00 0.00 61 1004.5
20210621081205 77 13 1.0 2.0 0.00 0.00 0.00 60 1004.5
20210621080706 77 13 1.0 2.0 0.00 0.00 0.00 60 1004.5